Weather History for Cincinnati, OH

Change the Weather History Date:

Tuesday, July 23, 2013

  Actual Average Record
Temperature  
Mean Temperature 76 °F -  
Max Temperature 89 °F 87 °F 100 °F (1983)
Min Temperature 66 °F 67 °F 57 °F (2000)
Cooling Degree Days 12    
Growing Degree Days 26 (Base 50)    
Moisture  
Dew Point 70 °F    
Average Humidity 91    
Maximum Humidity 100    
Minimum Humidity 61    
Precipitation  
Precipitation 0.01 in - - ()
Sea Level Pressure  
Sea Level Pressure 29.82 in    
Wind  
Wind Speed 2 mph (SW)    
Max Wind Speed 16 mph    
Max Gust Speed 30 mph    
Visibility 5 miles    
Events Fog , Rain , Thunderstorm    
Averages and records for this station are not official NWS values.
T = Trace of Precipitation, MM = Missing Value Source: NWS Daily Summary

Daily Weather History Graph

Daily Weather History Graph

Search for Another Location

Airport:

Trip Planner

Search our weather history database for the weather conditions in past years. The results will help you decide how hot, cold, wet, or windy it might be!

Date:

Astronomy

Jul. 23, 2013 Rise Set
Actual Time 6:30 AM EDT 8:57 PM EDT
Civil Twilight 6:00 AM EDT 9:27 PM EDT
Nautical Twilight 5:22 AM EDT 10:05 PM EDT
Astronomical Twilight 4:40 AM EDT 10:47 PM EDT
Moon 9:26 PM EDT (7/23) 7:37 AM EDT (7/23)
Length of Visible Light 15h 27m
Length of Day
14h 26m
Full, 99% of the Moon is Illuminated
Jul 23
Full
Jul 29
Last Quarter
Aug 6
New
Aug 14
First Quarter
Aug 20
Full

Hourly Weather History & Observations

Time (EDT) Temp. Heat Index Dew Point Humidity Pressure Visibility Wind Dir Wind Speed Gust Speed Precip Events Conditions
12:06 AM 69.8 °F - 69.8 °F 100% 29.83 in 1.8 mi Calm Calm - N/A   Partly Cloudy
12:18 AM 69.8 °F - 69.8 °F 100% 29.83 in 0.8 mi Calm Calm - N/A   Clear
12:28 AM 69.8 °F - 69.8 °F 100% 29.83 in 0.2 mi Calm Calm - N/A Fog Fog
12:34 AM 69.8 °F - 69.8 °F 100% 29.83 in 0.5 mi Calm Calm - N/A Fog Fog
12:40 AM 69.8 °F - 69.8 °F 100% 29.83 in 1.2 mi Calm Calm - N/A   Partly Cloudy
12:44 AM 69.8 °F - 69.8 °F 100% 29.83 in 4.0 mi Calm Calm - N/A   Partly Cloudy
12:53 AM 70.0 °F - 70.0 °F 100% 29.82 in 4.0 mi Calm Calm - N/A   Partly Cloudy
12:58 AM 69.8 °F - 69.8 °F 100% 29.83 in 1.8 mi Calm Calm - N/A   Partly Cloudy
1:08 AM 69.8 °F - 69.8 °F 100% 29.83 in 0.8 mi Calm Calm - N/A   Mostly Cloudy
1:14 AM 69.8 °F - 69.8 °F 100% 29.83 in 2.0 mi Calm Calm - N/A   Mostly Cloudy
1:28 AM 69.8 °F - 69.8 °F 100% 29.84 in 0.8 mi Calm Calm - N/A   Mostly Cloudy
1:35 AM 69.8 °F - 69.8 °F 100% 29.84 in 0.5 mi Calm Calm - N/A Fog Fog
1:43 AM 69.8 °F - 69.8 °F 100% 29.84 in 1.0 mi Calm Calm - N/A   Mostly Cloudy
1:48 AM 69.8 °F - 69.8 °F 100% 29.84 in 1.8 mi Calm Calm - N/A   Scattered Clouds
1:53 AM 69.1 °F - 69.1 °F 100% 29.83 in 1.2 mi Calm Calm - N/A   Scattered Clouds
1:58 AM 69.8 °F - 69.8 °F 100% 29.84 in 1.0 mi Calm Calm - N/A   Mist
2:01 AM 69.8 °F - 69.8 °F 100% 29.84 in 0.8 mi Calm Calm - N/A   Mist
2:08 AM 69.8 °F - 69.8 °F 100% 29.84 in 0.8 mi Calm Calm - N/A   Mist
2:19 AM 68.0 °F - 68.0 °F 100% 29.85 in 0.2 mi Calm Calm - N/A Fog Fog
2:53 AM 68.0 °F - 68.0 °F 100% 29.84 in 0.5 mi Calm Calm - N/A Fog Fog
3:09 AM 68.0 °F - 68.0 °F 100% 29.85 in 0.5 mi Calm Calm - N/A Fog Fog
3:31 AM 68.0 °F - 68.0 °F 100% 29.85 in 0.2 mi Calm Calm - N/A Fog Fog
3:53 AM 66.9 °F - 66.9 °F 100% 29.83 in 0.2 mi Calm Calm - N/A Fog Fog
4:07 AM 68.0 °F - 68.0 °F 100% 29.84 in 0.8 mi Calm Calm - N/A   Mist
4:09 AM 68.0 °F - 68.0 °F 100% 29.84 in 1.2 mi Calm Calm - N/A   Scattered Clouds
4:22 AM 69.8 °F - 69.8 °F 100% 29.83 in 0.8 mi Calm Calm - N/A   Mist
4:36 AM 66.2 °F - 66.2 °F 100% 29.84 in 0.2 mi Calm Calm - N/A Fog Fog
4:53 AM 66.9 °F - 66.9 °F 100% 29.82 in 0.8 mi Calm Calm - N/A   Mist
5:24 AM 66.2 °F - 66.2 °F 100% 29.84 in 0.2 mi SSW 3.5 mph - N/A Fog Fog
5:40 AM 68.0 °F - 68.0 °F 100% 29.84 in 1.0 mi SSW 5.8 mph - N/A   Mist
5:43 AM 68.0 °F - 68.0 °F 100% 29.83 in 3.0 mi SSW 4.6 mph - N/A   Mostly Cloudy
5:50 AM 68.0 °F - 68.0 °F 100% 29.83 in 5.0 mi SSW 5.8 mph - N/A   Scattered Clouds
5:53 AM 69.1 °F - 69.1 °F 100% 29.82 in 5.0 mi South 5.8 mph - N/A   Partly Cloudy
6:53 AM 69.1 °F - 69.1 °F 100% 29.82 in 6.0 mi South 5.8 mph - N/A   Clear
7:53 AM 72.0 °F - 71.1 °F 97% 29.82 in 7.0 mi SSW 3.5 mph - N/A   Clear
8:53 AM 73.9 °F - 72.0 °F 93% 29.81 in 10.0 mi SSW 4.6 mph - N/A   Clear
9:53 AM 78.1 °F - 73.0 °F 84% 29.81 in 10.0 mi SW 5.8 mph - N/A   Scattered Clouds
10:53 AM 81.0 °F 85.8 °F 73.0 °F 77% 29.82 in 10.0 mi WSW 5.8 mph - N/A   Partly Cloudy
11:53 AM 84.0 °F 90.2 °F 73.0 °F 69% 29.83 in 10.0 mi WSW 10.4 mph - N/A   Mostly Cloudy
12:27 PM 80.6 °F 85.4 °F 73.4 °F 79% 29.84 in 10.0 mi SW 12.7 mph - N/A   Mostly Cloudy
12:53 PM 86.0 °F 93.8 °F 73.9 °F 67% 29.81 in 10.0 mi SSW 12.7 mph - N/A   Mostly Cloudy
1:04 PM 86.0 °F 93.4 °F 73.4 °F 66% 29.82 in 10.0 mi WSW 15.0 mph 20.7 mph N/A   Mostly Cloudy
1:53 PM 86.0 °F 93.0 °F 73.0 °F 65% 29.79 in 10.0 mi SW 12.7 mph - N/A   Scattered Clouds
2:53 PM 87.1 °F 93.6 °F 72.0 °F 61% 29.76 in 10.0 mi WSW 9.2 mph - N/A   Partly Cloudy
3:53 PM 84.9 °F 91.4 °F 73.0 °F 67% 29.75 in 10.0 mi SW 12.7 mph - 0.00 in   Mostly Cloudy
4:36 PM 84.2 °F 90.9 °F 73.4 °F 70% 29.77 in 8.0 mi SW 8.1 mph - N/A Thunderstorm Thunderstorm
4:53 PM 82.9 °F 88.8 °F 73.0 °F 72% 29.76 in 8.0 mi WSW 10.4 mph - N/A Thunderstorm Thunderstorm
5:10 PM 75.2 °F - 69.8 °F 83% 29.81 in 5.0 mi North 16.1 mph 29.9 mph 0.01 in Rain , Thunderstorm Thunderstorms and Rain
5:37 PM 78.8 °F - 69.8 °F 74% 29.78 in 10.0 mi Variable 3.5 mph - 0.01 in   Partly Cloudy
5:53 PM 75.9 °F - 70.0 °F 82% 29.76 in 10.0 mi SE 3.5 mph - 0.01 in   Scattered Clouds
6:53 PM 79.0 °F - 70.0 °F 74% 29.76 in 10.0 mi South 3.5 mph - N/A   Partly Cloudy
7:53 PM 78.1 °F - 70.0 °F 76% 29.74 in 10.0 mi South 6.9 mph - N/A   Clear
8:53 PM 75.9 °F - 70.0 °F 82% 29.74 in 10.0 mi South 4.6 mph - N/A   Clear
9:53 PM 73.0 °F - 70.0 °F 90% 29.77 in 10.0 mi Calm Calm - 0.00 in Rain Light Rain
10:53 PM 73.0 °F - 71.1 °F 93% 29.81 in 10.0 mi North 4.6 mph - 0.00 in   Mostly Cloudy
11:53 PM 73.0 °F - 66.9 °F 81% 29.82 in 10.0 mi North 9.2 mph - N/A   Mostly Cloudy